Location: Brantley
(31.5822°N, 86.2569°W)
Time: 03:00:54
(UTC+00:00)

Vanguard 2 - Pass Details

Date: 16 February 2026
Orbit: 553 x 2896 km, 32.9° (Epoch: 13 March)

Event Time Altitude Azimuth Distance (km) Brightness Sun altitude
Exits shadow 12:08:51 - 251° (WSW) 3,615 10.4 -4.3°
Rises 12:08:57 0° 251° (WSW) 3,572 10.4 -4.3°
Reaches altitude 10° 12:11:57 10° 250° (WSW) 2,353 9.5 -3.7°
Maximum altitude 12:17:05 73° 166° (SSE) 649 7.3 -2.6°
Drops below altitude 10° 12:21:04 10° 81° (E) 1,837 10.9 -1.8°
Sets 12:23:10 0° 79° (E) 2,715 11.8 -1.4°
